Regional Weather Roundup
Issued by NWS

Home | Current Version | Previous Version | Graphics & Text | Print | Product List | Glossary On
Versions: 1 2 3 4 5 6 7 8 9 10 11 12 13 14 15 16 17 18 19 20 21 22 23 24 25 26 27 28 29 30 31 32 33 34 35 36 37 38 39 40 41 42 43 44 45 46 47 48 49 50
000
ASUS45 KPSR 300800
RWRAZ

ARIZONA HOURLY REGIONAL WEATHER ROUNDUP
NATIONAL WEATHER SERVICE PHOENIX AZ
100 AM MST SUN AUG 30 2015

NOTE: FAIR INDICATES FEW OR NO CLOUDS BELOW 12,000 FEET WITH NO
SIGNIFICANT WEATHER AND/OR OBSTRUCTIONS TO VISIBILITY.

AZZ001>003-036-300900-
NORTHWEST ARIZONA

CITY           SKY/WX    TMP DP  RH WIND       PRES   REMARKS
KINGMAN        CLOUDY    87  48  25 S13       29.98R
$$

AZZ004>008-015-016-018-300900-
NORTH CENTRAL ARIZONA

CITY           SKY/WX    TMP DP  RH WIND       PRES   REMARKS
GRAND CANYON   CLEAR     50  43  77 CALM      30.27S
WILLIAMS       CLEAR     57  50  77 SE9       30.33S
PRESCOTT       CLEAR     68  55  63 S6        30.15S
FLAGSTAFF      NOT AVBL
PAYSON         MOCLDY    68  54  60 CALM      30.19F
PAGE           MOCLDY    80  48  32 CALM      30.03S
$$

AZZ009>014-017-300900-
NORTHEAST ARIZONA

CITY           SKY/WX    TMP DP  RH WIND       PRES   REMARKS
WINSLOW        NOT AVBL
SAINT JOHNS    PTCLDY    66  53  63 CALM      30.22R
WINDOW ROCK    PTCLDY    60  48  64 CALM      30.30S
SHOW LOW       CLEAR     63  45  51 S13       30.28F
$$

AZZ023-300900-
GREATER PHOENIX AREA

CITY           SKY/WX    TMP DP  RH WIND       PRES   REMARKS
PHOENIX        PTCLDY    86  69  56 E6        29.82S
LUKE AFB       PTCLDY    89  65  44 E3        29.82S
DEER VALLEY    PTCLDY    89  59  36 CALM      29.85S
SCOTTSDALE     PTCLDY    86  66  51 CALM      29.86F
$$

AZZ027-028-300900-
SOUTHWEST MARICOPA COUNTY AND PINAL COUNTY

CITY           SKY/WX    TMP DP  RH WIND       PRES   REMARKS
CASA GRANDE    PTCLDY    82  63  51 CALM      29.86F
GILA BEND      FAIR      93  57  29 S7        29.79S
$$

AZZ503-504-507>509-300900-
SOUTHEAST ARIZONA

CITY           SKY/WX    TMP DP  RH WIND       PRES   REMARKS
TUCSON         MOCLDY    82  59  45 S3        30.00R
DAVIS-MONTHAN  PTCLDY    82  59  44 SE1       29.97S
NOGALES        PTCLDY    70  61  73 NE3       30.09F
SIERRA VISTA   PTCLDY    70  55  57 N5        30.15F
SAFFORD        CLEAR     75  59  57 S5        30.05S
$$

AZZ020-021-025-026-031-300900-
SOUTHWEST ARIZONA

CITY           SKY/WX    TMP DP  RH WIND       PRES   REMARKS
YUMA           NOT AVBL
$$

CAZ031-033-041-043-047-048-061-300900-
SOUTHERN CALIFORNIA

CITY           SKY/WX    TMP DP  RH WIND       PRES   REMARKS
DOWNTOWN L.A.  CLEAR     74  66  76 CALM      29.86R
L.A. AIRPORT   CLEAR     72  67  84 SW7       29.86R
SAN DIEGO      PTCLDY    75  68  78 NW3       29.89R
BURBANK        CLEAR     78  62  57 E6        29.87R
ONTARIO        CLEAR     76  58  53 W3        29.89S
RIVERSIDE      CLEAR     77  60  55 CALM      29.88S
PALM SPRINGS   CLEAR     96  49  20 W6        29.76S
EL CENTRO NAS  CLEAR     91  50  24 W7        29.74R
IMPERIAL       CLEAR     89  55  31 W8        29.72R
BLYTHE         CLEAR     96  58  27 S10       29.73S
$$

NVZ020-UTZ003-300900-
SOUTHERN NEVADA-UTAH

CITY           SKY/WX    TMP DP  RH WIND       PRES   REMARKS
LAS VEGAS      NOT AVBL
SALT LAKE CITY MOCLDY    83  43  24 S16       29.89S
$$

NMZ009-TXZ055-300900-
NEW MEXICO-WEST TEXAS

CITY           SKY/WX    TMP DP  RH WIND       PRES   REMARKS
ALBUQUERQUE    CLEAR     73  50  44 CALM      30.24F
EL PASO        PTCLDY    76  54  46 E5        30.12S
$$


........................KEY........................
SKY/WX - SKY CONDITION/WEATHER
TMP    - TEMPERATURE IN FAHRENHEIT
DP     - DEW POINT IN FAHRENHEIT
RH     - RELATIVE HUMIDITY IN PERCENT
WIND   - DIRECTION AND SPEED IN MILES PER HOUR (MPH)
VRB    - VARIABLE WIND DIRECTION
PRES   - MEAN SEA LEVEL PRESSURE IN INCHES OF MERCURY
         F - FALLING PRESSURE   R - RISING PRESSURE
         S - STEADY PRESSURE
VSB    - VISIBILITY IN MILES
HX     - HEAT INDEX IN FAHRENHEIT
WCI    - WIND CHILL INDEX IN FAHRENHEIT
TC     - TEMPERATURE IN CELSIUS WHICH IS ALSO KNOWN AS
         TEMPERATURE IN CENTIGRADE
AFB    - AIR FORCE BASE
         LUKE AFB IS LUKE AIR FORCE BASE
         DAVIS-MONTHAN IS DAVIS-MONTHAN AIR FORCE BASE
NAS    - NAVAL AIR STATION
         EL CENTRO NAS IS EL CENTRO NAVAL AIR STATION
N/A    - NOT AVAILABLE



USA.gov is the U.S. government's official web portal to all federal, state and local government web resources and services.